Home   Weather   Tijuana   Past weeks

Flag for Mexico Past Weather in Tijuana, Baja California, Mexico — Yesterday and Last 2 Weeks

Now
52 °F

Clear.


Feels Like: 52 °F
Forecast: 45 / 67 °F
Wind: No wind

Location: Tijuana International Airport

Current Time: Jan 16, 2017 at 9:23:24 pm

Latest Report: Jan 16, 2017 at 8:47 pm


Visibility: 7 mi

Pressure: 30.08 "Hg

Humidity: 82%

Dew Point: 46 °F

Location of TijuanaLocation

Past Weather in Tijuana — Graph

°F

Tijuana Temperature Yesterday

Maximum temperature yesterday: 61 °F (at 12:46 pm)
Minimum temperature yesterday: 48 °F (at 3:46 am)
Average temperature yesterday: 54 °F

High & Low Weather Summary for the Past Weeks

 TemperatureHumidityPressure
High79 °F (Jan 8, 11:49 am)100% (Jan 5, 12:42 pm)30.25 "Hg (Jan 5, 12:42 pm)
Low46 °F (Jan 4, 5:41 am)25% (Jan 7, 1:48 pm)29.97 "Hg (Jan 12, 4:44 am)
Average56 °F75%30.10 "Hg
* Reported Jan 1 7:44 pm — Jan 16 7:46 pm, Tijuana, Weather by CustomWeather, © 2017

Note: Actual official high and low records may vary slightly from our data, if they occured in-between our weather recording intervals... More about our weather records

Advertising

Tijuana Weather History for the Previous 24 Hours

Scroll right to see more
 ConditionsComfort  
Time TempWeatherWind HumidityBarometerVisibility
7:46 pm
Mon, Jan 16
54 °FClear.No wind77%30.08 "Hg7 mi
6:43 pm54 °FClear.5 mph82%30.09 "Hg7 mi
5:46 pm55 °FClear.6 mph77%30.05 "Hg7 mi
4:44 pm57 °FPassing clouds.13 mph77%30.04 "Hg7 mi
3:47 pm59 °FPassing clouds.15 mph72%30.06 "Hg7 mi
2:42 pm61 °FScattered clouds.12 mph68%30.02 "Hg7 mi
1:43 pm61 °FScattered clouds.10 mph68%30.02 "Hg7 mi
12:42 pm61 °FPartly sunny.13 mph63%30.06 "Hg7 mi
11:51 am61 °FPartly sunny.7 mph55%30.06 "Hg7 mi
10:58 am59 °FPartly sunny.3 mph63%30.09 "Hg6 mi
9:48 am57 °FPartly sunny.No wind63%30.11 "Hg6 mi
8:51 am52 °FPartly sunny.No wind82%30.11 "Hg7 mi
7:48 am52 °FPartly sunny.No wind82%30.09 "Hg7 mi
6:45 am50 °FPassing clouds.No wind82%30.08 "Hg7 mi
5:44 am50 °FPassing clouds.No wind88%30.05 "Hg5 mi
4:42 am52 °FOvercast.No wind82%30.06 "Hg5 mi
3:47 am52 °FOvercast.No wind82%30.09 "Hg5 mi
2:45 am52 °FPassing clouds.No wind82%30.08 "Hg6 mi
1:41 am52 °FPassing clouds.No wind88%30.08 "Hg6 mi
12:47 am52 °FPassing clouds.No wind82%30.07 "Hg6 mi
11:45 pm
Sun, Jan 15
52 °FPassing clouds.No wind82%30.09 "Hg6 mi
10:40 pm54 °FPassing clouds.No wind82%30.10 "Hg6 mi
9:40 pm55 °FPassing clouds.No wind77%30.11 "Hg6 mi
Weather by CustomWeather, © 2017

See weather overviewHow to use our weather pages